Regional Weather Roundup
Issued by NWS

Home | Current Version | Previous Version | Graphics & Text | Print | Product List | Glossary On
Versions: 1 2 3 4 5 6 7 8 9 10 11 12 13 14 15 16 17 18 19 20 21 22 23 24 25 26 27 28 29 30 31 32 33 34 35 36 37 38 39 40 41 42 43 44 45 46 47 48 49 50
221
ASUS43 KBIS 171602
RWRND

NORTH DAKOTA REGIONAL WEATHER ROUNDUP
NATIONAL WEATHER SERVICE BISMARCK ND
1100 AM CDT TUE OCT 17 2017

NOTE: "FAIR" INDICATES FEW OR NO CLOUDS BELOW 12,000 FEET WITH NO
SIGNIFICANT WEATHER AND/OR OBSTRUCTIONS TO VISIBILITY.


NDZ001>003-009>011-017-171700-
NORTHWEST NORTH DAKOTA

CITY           SKY/WX    TMP DP  RH WIND       PRES   REMARKS
WILLISTON      SUNNY     53  33  46 SW9       29.83S
MINOT          SUNNY     63  31  30 SW12      29.80S
MINOT AFB      SUNNY     62  31  32 W15       29.77S
$$

NDZ018>021-031>035-040>046-171700-
SOUTHWEST NORTH DAKOTA

CITY           SKY/WX    TMP DP  RH WIND       PRES   REMARKS
BISMARCK       SUNNY     60  33  36 SW8       29.90F
DICKINSON      SUNNY     62  27  26 W20       29.89
GARRISON         N/A     59  35  40 W12       29.84S
HETTINGER ARPT SUNNY     61  28  28 W9        29.98S
$$

NDZ004>008-012>016-024-026-027-054-171700-
NORTHEAST NORTH DAKOTA

CITY           SKY/WX    TMP DP  RH WIND       PRES   REMARKS
GRAND FORKS    PTSUNNY   59  40  49 S12       29.84F
GRND FRKS AFB  MOSUNNY   63  35  36 SW17      29.83F
DEVILS LAKE    CLOUDY    56  36  47 SW13      29.82F
$$

NDZ022-023-025-028>030-036>039-047>053-171700-
SOUTHEAST NORTH DAKOTA

CITY           SKY/WX    TMP DP  RH WIND       PRES   REMARKS
FARGO          SUNNY     55  40  56 S9        29.92F
JAMESTOWN      SUNNY     62  39  42 S8        29.88F
$$





USA.gov is the U.S. government's official web portal to all federal, state and local government web resources and services.